Time,TemperatureF,DewpointF,PressureIn,WindDirection,WindDirectionDegrees,WindSpeedMPH,WindSpeedGustMPH,Humidity,HourlyPrecipIn,Conditions,Clouds,dailyrainin,SoftwareType,DateUTC
2013-01-02 00:00:00,23.0,23.0,30.02,NW,315,2.0,6.0,100,0.00,,,0.00,Weather View 32 v70,2013-01-02 05:00:00,
2013-01-02 00:05:00,23.0,23.0,30.02,NNW,337,2.0,6.0,100,0.00,,,0.00,Weather View 32 v70,2013-01-02 05:05:00,
2013-01-02 00:10:00,22.0,22.0,30.02,NNW,337,3.0,7.0,100,0.00,,,0.00,Weather View 32 v70,2013-01-02 05:10:00,
2013-01-02 00:15:00,22.0,22.0,30.02,North,360,1.0,7.0,100,0.00,,,0.00,Weather View 32 v70,2013-01-02 05:15:00,
2013-01-02 00:20:00,22.0,22.0,30.02,NW,315,4.0,7.0,100,0.00,,,0.00,Weather View 32 v70,2013-01-02 05:20:00,
2013-01-02 00:25:00,22.0,22.0,30.01,North,360,2.0,7.0,100,0.00,,,0.00,Weather View 32 v70,2013-01-02 05:25:00,
2013-01-02 00:30:00,22.0,22.0,30.01,North,360,2.0,7.0,100,0.00,,,0.00,Weather View 32 v70,2013-01-02 05:30:00,
2013-01-02 00:40:00,22.0,22.0,30.01,NW,315,2.0,7.0,100,0.00,,,0.00,Weather View 32 v70,2013-01-02 05:40:00,
2013-01-02 00:45:00,22.0,22.0,30.01,NNW,337,3.0,7.0,100,0.00,,,0.00,Weather View 32 v70,2013-01-02 05:45:00,
2013-01-02 00:50:00,22.0,22.0,30.01,NW,315,2.0,7.0,100,0.00,,,0.00,Weather View 32 v70,2013-01-02 05:50:00,
2013-01-02 00:55:00,22.0,22.0,30.01,NW,315,2.0,7.0,100,0.00,,,0.00,Weather View 32 v70,2013-01-02 05:55:00,
2013-01-02 01:00:00,22.0,22.0,30.02,NW,315,0.0,7.0,100,0.00,,,0.00,Weather View 32 v70,2013-01-02 06:00:00,
2013-01-02 01:05:00,21.0,21.0,30.02,NW,315,0.0,7.0,100,0.00,,,0.00,Weather View 32 v70,2013-01-02 06:05:00,
2013-01-02 01:10:00,21.0,21.0,30.01,NW,315,2.0,7.0,100,0.00,,,0.00,Weather View 32 v70,2013-01-02 06:10:00,
2013-01-02 01:15:00,21.0,21.0,30.01,NW,315,0.0,7.0,100,0.00,,,0.00,Weather View 32 v70,2013-01-02 06:15:00,
2013-01-02 01:20:00,21.0,21.0,30.01,NW,315,0.0,7.0,100,0.00,,,0.00,Weather View 32 v70,2013-01-02 06:20:00,
2013-01-02 01:30:00,21.0,21.0,30.01,NW,315,0.0,6.0,100,0.00,,,0.00,Weather View 32 v70,2013-01-02 06:30:00,
2013-01-02 01:40:00,21.0,21.0,30.01,NW,315,2.0,6.0,100,0.00,,,0.00,Weather View 32 v70,2013-01-02 06:40:00,
2013-01-02 01:45:00,21.0,21.0,30.01,NW,315,0.0,6.0,100,0.00,,,0.00,Weather View 32 v70,2013-01-02 06:45:00,
2013-01-02 01:50:00,20.0,20.0,30.01,NW,315,0.0,6.0,100,0.00,,,0.00,Weather View 32 v70,2013-01-02 06:50:00,
2013-01-02 01:55:00,20.0,20.0,30.01,NW,315,0.0,6.0,100,0.00,,,0.00,Weather View 32 v70,2013-01-02 06:55:00,
2013-01-02 02:00:00,20.0,20.0,30.01,NW,315,0.0,3.0,100,0.00,,,0.00,Weather View 32 v70,2013-01-02 07:00:00,
2013-01-02 02:05:00,20.0,20.0,30.01,NW,315,3.0,3.0,100,0.00,,,0.00,Weather View 32 v70,2013-01-02 07:05:00,
2013-01-02 02:10:00,20.0,20.0,30.01,NW,315,0.0,3.0,100,0.00,,,0.00,Weather View 32 v70,2013-01-02 07:10:00,
2013-01-02 02:15:00,20.0,20.0,30.02,NW,315,1.0,4.0,100,0.00,,,0.00,Weather View 32 v70,2013-01-02 07:15:00,
2013-01-02 02:20:00,20.0,20.0,30.01,NW,315,1.0,4.0,100,0.00,,,0.00,Weather View 32 v70,2013-01-02 07:20:00,
2013-01-02 02:25:00,20.0,20.0,30.02,NW,315,1.0,4.0,100,0.00,,,0.00,Weather View 32 v70,2013-01-02 07:25:00,
2013-01-02 02:35:00,19.0,19.0,30.02,North,360,4.0,5.0,100,0.00,,,0.00,Weather View 32 v70,2013-01-02 07:35:00,
2013-01-02 02:40:00,19.0,19.0,30.03,North,360,2.0,5.0,100,0.00,,,0.00,Weather View 32 v70,2013-01-02 07:40:00,
2013-01-02 02:45:00,19.0,19.0,30.02,North,360,2.0,5.0,100,0.00,,,0.00,Weather View 32 v70,2013-01-02 07:45:00,
2013-01-02 02:50:00,19.0,19.0,30.02,North,360,1.0,5.0,100,0.00,,,0.00,Weather View 32 v70,2013-01-02 07:50:00,
2013-01-02 02:55:00,19.0,19.0,30.02,North,360,2.0,5.0,100,0.00,,,0.00,Weather View 32 v70,2013-01-02 07:55:00,
2013-01-02 03:00:00,19.0,19.0,30.03,North,360,0.0,5.0,100,0.00,,,0.00,Weather View 32 v70,2013-01-02 08:00:00,
2013-01-02 03:05:00,19.0,19.0,30.03,North,360,0.0,5.0,100,0.00,,,0.00,Weather View 32 v70,2013-01-02 08:05:00,
2013-01-02 03:10:00,19.0,19.0,30.03,North,360,0.0,5.0,100,0.00,,,0.00,Weather View 32 v70,2013-01-02 08:10:00,
2013-01-02 03:15:00,18.0,18.0,30.03,North,360,1.0,5.0,100,0.00,,,0.00,Weather View 32 v70,2013-01-02 08:15:00,
2013-01-02 03:25:00,18.0,18.0,30.03,North,360,0.0,5.0,100,0.00,,,0.00,Weather View 32 v70,2013-01-02 08:25:00,
2013-01-02 03:30:00,18.0,18.0,30.03,North,360,0.0,5.0,100,0.00,,,0.00,Weather View 32 v70,2013-01-02 08:30:00,
2013-01-02 03:35:00,17.0,17.0,30.03,North,360,1.0,5.0,100,0.00,,,0.00,Weather View 32 v70,2013-01-02 08:35:00,
2013-01-02 03:40:00,17.0,17.0,30.03,North,360,1.0,5.0,100,0.00,,,0.00,Weather View 32 v70,2013-01-02 08:40:00,
2013-01-02 03:45:00,17.0,17.0,30.03,North,360,0.0,4.0,100,0.00,,,0.00,Weather View 32 v70,2013-01-02 08:45:00,
2013-01-02 03:50:00,17.0,17.0,30.03,North,360,0.0,4.0,100,0.00,,,0.00,Weather View 32 v70,2013-01-02 08:50:00,
2013-01-02 03:55:00,17.0,17.0,30.03,North,360,0.0,3.0,100,0.00,,,0.00,Weather View 32 v70,2013-01-02 08:55:00,
2013-01-02 04:00:00,18.0,18.0,30.03,North,360,0.0,3.0,100,0.00,,,0.00,Weather View 32 v70,2013-01-02 09:00:00,
2013-01-02 04:05:00,18.0,18.0,30.03,North,360,1.0,3.0,100,0.00,,,0.00,Weather View 32 v70,2013-01-02 09:05:00,
2013-01-02 04:10:00,18.0,18.0,30.03,North,360,0.0,3.0,100,0.00,,,0.00,Weather View 32 v70,2013-01-02 09:10:00,
2013-01-02 04:20:00,18.0,18.0,30.03,North,360,0.0,3.0,100,0.00,,,0.00,Weather View 32 v70,2013-01-02 09:20:00,
2013-01-02 04:25:00,18.0,18.0,30.03,North,360,1.0,3.0,100,0.00,,,0.00,Weather View 32 v70,2013-01-02 09:25:00,
2013-01-02 04:30:00,18.0,18.0,30.03,North,360,1.0,3.0,100,0.00,,,0.00,Weather View 32 v70,2013-01-02 09:30:00,
2013-01-02 04:40:00,18.0,18.0,30.03,North,360,0.0,2.0,100,0.00,,,0.00,Weather View 32 v70,2013-01-02 09:40:00,
2013-01-02 04:45:00,17.0,17.0,30.03,North,360,0.0,2.0,100,0.00,,,0.00,Weather View 32 v70,2013-01-02 09:45:00,
2013-01-02 04:50:00,17.0,17.0,30.03,North,360,0.0,2.0,100,0.00,,,0.00,Weather View 32 v70,2013-01-02 09:50:00,
2013-01-02 05:00:00,17.0,17.0,30.03,North,360,1.0,2.0,100,0.00,,,0.00,Weather View 32 v70,2013-01-02 10:00:00,
2013-01-02 05:05:00,16.0,16.0,30.03,North,360,1.0,4.0,100,0.00,,,0.00,Weather View 32 v70,2013-01-02 10:05:00,
2013-01-02 05:10:00,16.0,16.0,30.03,North,360,1.0,4.0,100,0.00,,,0.00,Weather View 32 v70,2013-01-02 10:10:00,
2013-01-02 05:20:00,16.0,16.0,30.03,North,360,1.0,4.0,100,0.00,,,0.00,Weather View 32 v70,2013-01-02 10:20:00,
2013-01-02 05:25:00,16.0,16.0,30.03,North,360,1.0,4.0,100,0.00,,,0.00,Weather View 32 v70,2013-01-02 10:25:00,
2013-01-02 05:30:00,16.0,16.0,30.02,North,360,0.0,4.0,100,0.00,,,0.00,Weather View 32 v70,2013-01-02 10:30:00,
2013-01-02 05:35:00,16.0,16.0,30.03,North,360,0.0,4.0,100,0.00,,,0.00,Weather View 32 v70,2013-01-02 10:35:00,
2013-01-02 05:40:00,15.0,15.0,30.02,North,360,0.0,4.0,100,0.00,,,0.00,Weather View 32 v70,2013-01-02 10:40:00,
2013-01-02 05:50:00,15.0,15.0,30.03,NW,315,3.0,5.0,100,0.00,,,0.00,Weather View 32 v70,2013-01-02 10:50:00,
2013-01-02 05:55:00,15.0,15.0,30.03,NW,315,1.0,5.0,100,0.00,,,0.00,Weather View 32 v70,2013-01-02 10:55:00,
2013-01-02 06:05:00,15.0,15.0,30.03,NW,315,0.0,5.0,100,0.00,,,0.00,Weather View 32 v70,2013-01-02 11:05:00,
2013-01-02 06:10:00,14.0,14.0,30.03,NW,315,0.0,5.0,100,0.00,,,0.00,Weather View 32 v70,2013-01-02 11:10:00,
2013-01-02 06:15:00,13.0,13.0,30.03,NW,315,0.0,5.0,100,0.00,,,0.00,Weather View 32 v70,2013-01-02 11:15:00,
2013-01-02 06:20:00,13.0,13.0,30.03,NW,315,0.0,5.0,100,0.00,,,0.00,Weather View 32 v70,2013-01-02 11:20:00,
2013-01-02 06:25:00,13.0,13.0,30.03,NW,315,0.0,5.0,100,0.00,,,0.00,Weather View 32 v70,2013-01-02 11:25:00,
2013-01-02 06:30:00,13.0,13.0,30.03,NW,315,0.0,5.0,100,0.00,,,0.00,Weather View 32 v70,2013-01-02 11:30:00,
2013-01-02 06:35:00,13.0,13.0,30.03,NW,315,2.0,5.0,100,0.00,,,0.00,Weather View 32 v70,2013-01-02 11:35:00,
2013-01-02 06:45:00,13.0,13.0,30.03,NW,315,0.0,5.0,100,0.00,,,0.00,Weather View 32 v70,2013-01-02 11:45:00,
2013-01-02 06:55:00,12.0,12.0,30.03,NW,315,0.0,3.0,100,0.00,,,0.00,Weather View 32 v70,2013-01-02 11:55:00,
2013-01-02 07:00:00,12.0,12.0,30.04,NW,315,0.0,2.0,100,0.00,,,0.00,Weather View 32 v70,2013-01-02 12:00:00,
2013-01-02 07:05:00,12.0,12.0,30.04,NW,315,0.0,2.0,100,0.00,,,0.00,Weather View 32 v70,2013-01-02 12:05:00,
2013-01-02 07:10:00,13.0,13.0,30.04,NW,315,1.0,2.0,100,0.00,,,0.00,Weather View 32 v70,2013-01-02 12:10:00,
2013-01-02 07:15:00,13.0,13.0,30.03,NW,315,0.0,2.0,100,0.00,,,0.00,Weather View 32 v70,2013-01-02 12:15:00,
2013-01-02 07:20:00,12.0,12.0,30.03,NW,315,0.0,2.0,100,0.00,,,0.00,Weather View 32 v70,2013-01-02 12:20:00,
2013-01-02 07:25:00,12.0,12.0,30.03,NW,315,0.0,2.0,100,0.00,,,0.00,Weather View 32 v70,2013-01-02 12:25:00,
2013-01-02 07:30:00,11.0,11.0,30.04,NW,315,0.0,2.0,100,0.00,,,0.00,Weather View 32 v70,2013-01-02 12:30:00,
2013-01-02 07:35:00,11.0,11.0,30.05,NW,315,0.0,2.0,100,0.00,,,0.00,Weather View 32 v70,2013-01-02 12:35:00,
2013-01-02 07:45:00,10.0,10.0,30.05,NW,315,0.0,2.0,100,0.00,,,0.00,Weather View 32 v70,2013-01-02 12:45:00,
2013-01-02 07:50:00,10.0,10.0,30.05,NW,315,0.0,2.0,100,0.00,,,0.00,Weather View 32 v70,2013-01-02 12:50:00,
2013-01-02 07:55:00,10.0,10.0,30.05,NW,315,0.0,2.0,100,0.00,,,0.00,Weather View 32 v70,2013-01-02 12:55:00,
2013-01-02 08:00:00,10.0,10.0,30.05,NW,315,0.0,2.0,100,0.00,,,0.00,Weather View 32 v70,2013-01-02 13:00:00,
2013-01-02 08:05:00,10.0,10.0,30.05,NW,315,0.0,2.0,100,0.00,,,0.00,Weather View 32 v70,2013-01-02 13:05:00,
2013-01-02 08:10:00,10.0,10.0,30.05,NW,315,0.0,2.0,100,0.00,,,0.00,Weather View 32 v70,2013-01-02 13:10:00,
2013-01-02 08:15:00,10.0,10.0,30.05,NW,315,0.0,0.0,100,0.00,,,0.00,Weather View 32 v70,2013-01-02 13:15:00,
2013-01-02 08:20:00,10.0,10.0,30.05,NW,315,0.0,0.0,100,0.00,,,0.00,Weather View 32 v70,2013-01-02 13:20:00,
2013-01-02 08:25:00,11.0,11.0,30.06,NW,315,0.0,0.0,100,0.00,,,0.00,Weather View 32 v70,2013-01-02 13:25:00,
2013-01-02 08:30:00,11.0,11.0,30.06,NW,315,0.0,0.0,100,0.00,,,0.00,Weather View 32 v70,2013-01-02 13:30:00,
2013-01-02 08:40:00,12.0,12.0,30.06,NW,315,2.0,2.0,100,0.00,,,0.00,Weather View 32 v70,2013-01-02 13:40:00,
2013-01-02 08:45:00,13.0,13.0,30.06,NW,315,2.0,3.0,100,0.00,,,0.00,Weather View 32 v70,2013-01-02 13:45:00,
2013-01-02 08:50:00,13.0,13.0,30.06,NW,315,3.0,4.0,100,0.00,,,0.00,Weather View 32 v70,2013-01-02 13:50:00,
2013-01-02 08:55:00,13.0,13.0,30.06,NW,315,4.0,5.0,100,0.00,,,0.00,Weather View 32 v70,2013-01-02 13:55:00,
2013-01-02 09:00:00,13.0,13.0,30.07,NW,315,2.0,5.0,100,0.00,,,0.00,Weather View 32 v70,2013-01-02 14:00:00,
2013-01-02 09:05:00,13.0,13.0,30.07,NW,315,0.0,5.0,100,0.00,,,0.00,Weather View 32 v70,2013-01-02 14:05:00,
2013-01-02 09:10:00,13.0,13.0,30.07,NW,315,0.0,5.0,100,0.00,,,0.00,Weather View 32 v70,2013-01-02 14:10:00,
2013-01-02 09:20:00,13.0,13.0,30.08,NW,315,0.0,5.0,100,0.00,,,0.00,Weather View 32 v70,2013-01-02 14:20:00,
2013-01-02 09:25:00,13.0,13.0,30.08,NW,315,2.0,5.0,100,0.00,,,0.00,Weather View 32 v70,2013-01-02 14:25:00,
2013-01-02 09:30:00,13.0,13.0,30.08,NW,315,1.0,5.0,100,0.00,,,0.00,Weather View 32 v70,2013-01-02 14:30:00,
2013-01-02 09:35:00,14.0,14.0,30.08,NW,315,1.0,5.0,100,0.00,,,0.00,Weather View 32 v70,2013-01-02 14:35:00,
2013-01-02 09:45:00,14.0,14.0,30.09,North,360,1.0,5.0,100,0.00,,,0.00,Weather View 32 v70,2013-01-02 14:45:00,
2013-01-02 09:50:00,15.0,15.0,30.09,North,360,2.0,5.0,100,0.00,,,0.00,Weather View 32 v70,2013-01-02 14:50:00,
2013-01-02 09:55:00,15.0,15.0,30.09,NNW,337,2.0,5.0,100,0.00,,,0.00,Weather View 32 v70,2013-01-02 14:55:00,
2013-01-02 10:05:00,16.0,16.0,30.09,NNW,337,3.0,6.0,100,0.00,,,0.00,Weather View 32 v70,2013-01-02 15:05:00,
2013-01-02 10:10:00,17.0,17.0,30.09,North,360,4.0,6.0,100,0.00,,,0.00,Weather View 32 v70,2013-01-02 15:10:00,
2013-01-02 10:15:00,17.0,17.0,30.08,NW,315,2.0,6.0,100,0.00,,,0.00,Weather View 32 v70,2013-01-02 15:15:00,
2013-01-02 10:20:00,18.0,18.0,30.09,NW,315,0.0,6.0,100,0.00,,,0.00,Weather View 32 v70,2013-01-02 15:20:00,
2013-01-02 10:30:00,20.0,20.0,30.09,NW,315,0.0,6.0,100,0.00,,,0.00,Weather View 32 v70,2013-01-02 15:30:00,
2013-01-02 10:35:00,21.0,21.0,30.10,NW,315,0.0,6.0,100,0.00,,,0.00,Weather View 32 v70,2013-01-02 15:35:00,
2013-01-02 10:40:00,21.0,21.0,30.10,NW,315,0.0,6.0,100,0.00,,,0.00,Weather View 32 v70,2013-01-02 15:40:00,
2013-01-02 10:50:00,21.0,21.0,30.10,WNW,292,3.0,6.0,100,0.00,,,0.00,Weather View 32 v70,2013-01-02 15:50:00,
2013-01-02 10:55:00,21.0,21.0,30.11,WNW,292,1.0,6.0,100,0.00,,,0.00,Weather View 32 v70,2013-01-02 15:55:00,
2013-01-02 11:00:00,21.0,21.0,30.11,NW,315,3.0,6.0,100,0.00,,,0.00,Weather View 32 v70,2013-01-02 16:00:00,
2013-01-02 11:05:00,21.0,21.0,30.10,NW,315,1.0,6.0,100,0.00,,,0.00,Weather View 32 v70,2013-01-02 16:05:00,
2013-01-02 11:15:00,22.0,22.0,30.10,ENE,67,1.0,5.0,100,0.00,,,0.00,Weather View 32 v70,2013-01-02 16:15:00,
2013-01-02 11:20:00,22.0,22.0,30.10,ENE,67,1.0,5.0,100,0.00,,,0.00,Weather View 32 v70,2013-01-02 16:20:00,
2013-01-02 11:25:00,23.0,23.0,30.09,ENE,67,0.0,5.0,100,0.00,,,0.00,Weather View 32 v70,2013-01-02 16:25:00,
2013-01-02 11:35:00,24.0,24.0,30.09,NNW,337,2.0,5.0,100,0.00,,,0.00,Weather View 32 v70,2013-01-02 16:35:00,
2013-01-02 11:40:00,24.0,24.0,30.09,NNW,337,0.0,5.0,100,0.00,,,0.00,Weather View 32 v70,2013-01-02 16:40:00,
2013-01-02 11:45:00,24.0,24.0,30.09,NNW,337,1.0,5.0,100,0.00,,,0.00,Weather View 32 v70,2013-01-02 16:45:00,
2013-01-02 11:50:00,25.0,25.0,30.09,ESE,112,2.0,5.0,100,0.00,,,0.00,Weather View 32 v70,2013-01-02 16:50:00,
2013-01-02 12:00:00,25.0,25.0,30.10,South,180,0.0,5.0,100,0.00,,,0.00,Weather View 32 v70,2013-01-02 17:00:00,
2013-01-02 12:05:00,25.0,25.0,30.10,NW,315,6.0,6.0,100,0.00,,,0.00,Weather View 32 v70,2013-01-02 17:05:00,
2013-01-02 12:10:00,25.0,25.0,30.09,West,270,1.0,6.0,100,0.00,,,0.00,Weather View 32 v70,2013-01-02 17:10:00,
2013-01-02 12:20:00,24.0,23.3,30.09,WNW,292,3.0,6.0,97,0.00,,,0.00,Weather View 32 v70,2013-01-02 17:20:00,
2013-01-02 12:25:00,24.0,24.0,30.08,NW,315,0.0,6.0,100,0.00,,,0.00,Weather View 32 v70,2013-01-02 17:25:00,
2013-01-02 12:30:00,24.0,23.8,30.08,WNW,292,2.0,6.0,99,0.00,,,0.00,Weather View 32 v70,2013-01-02 17:30:00,
2013-01-02 12:35:00,23.0,22.5,30.08,West,270,0.0,6.0,98,0.00,,,0.00,Weather View 32 v70,2013-01-02 17:35:00,
2013-01-02 12:45:00,23.0,21.8,30.07,WNW,292,2.0,6.0,95,0.00,,,0.00,Weather View 32 v70,2013-01-02 17:45:00,
2013-01-02 12:50:00,23.0,22.8,30.07,NW,315,2.0,6.0,99,0.00,,,0.00,Weather View 32 v70,2013-01-02 17:50:00,
2013-01-02 12:55:00,24.0,24.0,30.07,WNW,292,0.0,6.0,100,0.00,,,0.00,Weather View 32 v70,2013-01-02 17:55:00,
2013-01-02 13:05:00,25.0,25.0,30.06,West,270,0.0,6.0,100,0.00,,,0.00,Weather View 32 v70,2013-01-02 18:05:00,
2013-01-02 13:10:00,26.0,26.0,30.06,SSE,157,3.0,6.0,100,0.00,,,0.00,Weather View 32 v70,2013-01-02 18:10:00,
2013-01-02 13:15:00,26.0,25.0,30.07,WSW,247,1.0,6.0,96,0.00,,,0.00,Weather View 32 v70,2013-01-02 18:15:00,
2013-01-02 13:20:00,27.0,26.0,30.06,WSW,247,1.0,6.0,96,0.00,,,0.00,Weather View 32 v70,2013-01-02 18:20:00,
2013-01-02 13:30:00,27.0,25.8,30.06,WNW,292,1.0,6.0,95,0.00,,,0.00,Weather View 32 v70,2013-01-02 18:30:00,
2013-01-02 13:35:00,27.0,26.5,30.06,NW,315,2.0,6.0,98,0.00,,,0.00,Weather View 32 v70,2013-01-02 18:35:00,
2013-01-02 13:40:00,27.0,27.0,30.05,NNW,337,0.0,6.0,100,0.00,,,0.00,Weather View 32 v70,2013-01-02 18:40:00,
2013-01-02 13:50:00,28.0,27.3,30.04,NNW,337,5.0,6.0,97,0.00,,,0.00,Weather View 32 v70,2013-01-02 18:50:00,
2013-01-02 13:55:00,28.0,26.0,30.04,NW,315,1.0,6.0,92,0.01,,,0.01,Weather View 32 v70,2013-01-02 18:55:00,
2013-01-02 14:10:00,28.0,24.9,30.04,West,270,1.0,6.0,88,0.01,,,0.01,Weather View 32 v70,2013-01-02 19:10:00,
2013-01-02 14:15:00,28.0,21.7,30.04,West,270,4.0,6.0,77,0.01,,,0.01,Weather View 32 v70,2013-01-02 19:15:00,
2013-01-02 14:25:00,28.0,24.4,30.05,NW,315,0.0,6.0,86,0.01,,,0.01,Weather View 32 v70,2013-01-02 19:25:00,
2013-01-02 14:30:00,28.0,22.6,30.04,West,270,0.0,6.0,80,0.01,,,0.01,Weather View 32 v70,2013-01-02 19:30:00,
2013-01-02 14:35:00,28.0,22.3,30.04,WNW,292,2.0,6.0,79,0.01,,,0.01,Weather View 32 v70,2013-01-02 19:35:00,
2013-01-02 14:45:00,28.0,22.6,30.04,WNW,292,2.0,6.0,80,0.01,,,0.01,Weather View 32 v70,2013-01-02 19:45:00,
2013-01-02 14:50:00,29.0,23.0,30.04,West,270,3.0,6.0,78,0.01,,,0.01,Weather View 32 v70,2013-01-02 19:50:00,
2013-01-02 14:55:00,29.0,22.7,30.04,WNW,292,6.0,6.0,77,0.00,,,0.01,Weather View 32 v70,2013-01-02 19:55:00,
2013-01-02 15:05:00,28.0,22.0,30.04,NW,315,3.0,6.0,78,0.00,,,0.01,Weather View 32 v70,2013-01-02 20:05:00,
2013-01-02 15:10:00,28.0,20.1,30.04,NW,315,0.0,6.0,72,0.00,,,0.01,Weather View 32 v70,2013-01-02 20:10:00,
2013-01-02 15:15:00,28.0,21.4,30.04,NW,315,0.0,6.0,76,0.00,,,0.01,Weather View 32 v70,2013-01-02 20:15:00,
2013-01-02 15:20:00,28.0,21.4,30.04,NW,315,3.0,6.0,76,0.00,,,0.01,Weather View 32 v70,2013-01-02 20:20:00,
2013-01-02 15:30:00,28.0,21.1,30.04,WNW,292,2.0,6.0,75,0.00,,,0.01,Weather View 32 v70,2013-01-02 20:30:00,
2013-01-02 15:40:00,28.0,21.4,30.04,WNW,292,0.0,6.0,76,0.00,,,0.01,Weather View 32 v70,2013-01-02 20:40:00,
2013-01-02 15:50:00,28.0,21.7,30.04,North,360,1.0,6.0,77,0.00,,,0.01,Weather View 32 v70,2013-01-02 20:50:00,
2013-01-02 15:55:00,28.0,21.4,30.04,NW,315,1.0,6.0,76,0.00,,,0.01,Weather View 32 v70,2013-01-02 20:55:00,
2013-01-02 16:00:00,28.0,21.4,30.04,NW,315,0.0,6.0,76,0.00,,,0.01,Weather View 32 v70,2013-01-02 21:00:00,
2013-01-02 16:05:00,28.0,20.8,30.04,NNW,337,1.0,6.0,74,0.00,,,0.01,Weather View 32 v70,2013-01-02 21:05:00,
2013-01-02 16:15:00,27.0,21.7,30.04,NNW,337,1.0,6.0,80,0.00,,,0.01,Weather View 32 v70,2013-01-02 21:15:00,
2013-01-02 16:20:00,27.0,21.7,30.04,NNW,337,3.0,6.0,80,0.00,,,0.01,Weather View 32 v70,2013-01-02 21:20:00,
2013-01-02 16:25:00,27.0,21.9,30.04,NNW,337,3.0,6.0,81,0.00,,,0.01,Weather View 32 v70,2013-01-02 21:25:00,
2013-01-02 16:35:00,26.0,21.0,30.05,NNW,337,1.0,6.0,81,0.00,,,0.01,Weather View 32 v70,2013-01-02 21:35:00,
2013-01-02 16:40:00,26.0,21.3,30.05,NNW,337,2.0,6.0,82,0.00,,,0.01,Weather View 32 v70,2013-01-02 21:40:00,
2013-01-02 16:45:00,26.0,21.3,30.05,NNW,337,1.0,6.0,82,0.00,,,0.01,Weather View 32 v70,2013-01-02 21:45:00,
2013-01-02 16:50:00,26.0,21.0,30.05,NNW,337,2.0,6.0,81,0.00,,,0.01,Weather View 32 v70,2013-01-02 21:50:00,
2013-01-02 16:57:00,25.0,20.6,30.05,NNW,337,1.0,4.0,83,0.00,,,0.01,Weather View 32 v70,2013-01-02 21:57:00,
2013-01-02 17:05:00,25.0,21.1,30.04,NNW,337,0.0,4.0,85,0.00,,,0.01,Weather View 32 v70,2013-01-02 22:05:00,
2013-01-02 17:10:00,25.0,21.4,30.04,NNW,337,0.0,4.0,86,0.00,,,0.01,Weather View 32 v70,2013-01-02 22:10:00,
2013-01-02 17:20:00,24.0,14.3,30.04,NNW,337,0.0,4.0,66,0.00,,,0.01,Weather View 32 v70,2013-01-02 22:20:00,
2013-01-02 17:25:00,24.0,15.0,30.04,NNW,337,0.0,4.0,68,0.00,,,0.01,Weather View 32 v70,2013-01-02 22:25:00,
2013-01-02 17:30:00,23.0,14.3,30.05,NNW,337,0.0,4.0,69,0.00,,,0.01,Weather View 32 v70,2013-01-02 22:30:00,
2013-01-02 17:35:00,23.0,14.7,30.05,NNW,337,0.0,4.0,70,0.00,,,0.01,Weather View 32 v70,2013-01-02 22:35:00,
2013-01-02 17:45:00,21.0,14.0,30.06,NNW,337,0.0,3.0,74,0.00,,,0.01,Weather View 32 v70,2013-01-02 22:45:00,
2013-01-02 17:50:00,21.0,14.9,30.06,NNW,337,0.0,3.0,77,0.00,,,0.01,Weather View 32 v70,2013-01-02 22:50:00,
2013-01-02 17:58:00,20.0,14.2,30.06,NNW,337,0.0,2.0,78,0.00,,,0.01,Weather View 32 v70,2013-01-02 22:58:00,
2013-01-02 18:05:00,20.0,15.9,30.06,NNW,337,0.0,2.0,84,0.00,,,0.01,Weather View 32 v70,2013-01-02 23:05:00,
2013-01-02 18:10:00,20.0,16.5,30.06,NNW,337,0.0,1.0,86,0.00,,,0.01,Weather View 32 v70,2013-01-02 23:10:00,
2013-01-02 18:15:00,20.0,16.8,30.06,NNW,337,0.0,0.0,87,0.00,,,0.01,Weather View 32 v70,2013-01-02 23:15:00,
2013-01-02 18:25:00,19.0,16.6,30.06,NNW,337,0.0,0.0,90,0.00,,,0.01,Weather View 32 v70,2013-01-02 23:25:00,
2013-01-02 18:30:00,19.0,17.1,30.06,NNW,337,0.0,0.0,92,0.00,,,0.01,Weather View 32 v70,2013-01-02 23:30:00,
2013-01-02 18:35:00,19.0,17.8,30.06,NNW,337,0.0,0.0,95,0.00,,,0.01,Weather View 32 v70,2013-01-02 23:35:00,
2013-01-02 18:40:00,19.0,17.8,30.06,NNW,337,0.0,0.0,95,0.00,,,0.01,Weather View 32 v70,2013-01-02 23:40:00,
2013-01-02 18:45:00,19.0,18.5,30.06,NNW,337,0.0,0.0,98,0.00,,,0.01,Weather View 32 v70,2013-01-02 23:45:00,
2013-01-02 18:50:00,19.0,18.0,30.06,NNW,337,0.0,0.0,96,0.00,,,0.01,Weather View 32 v70,2013-01-02 23:50:00,
2013-01-02 18:55:00,20.0,18.1,30.06,NNW,337,0.0,0.0,92,0.00,,,0.01,Weather View 32 v70,2013-01-02 23:55:00,
2013-01-02 19:05:00,21.0,16.7,30.07,NNW,337,0.0,0.0,83,0.00,,,0.01,Weather View 32 v70,2013-01-03 00:05:00,
2013-01-02 19:15:00,20.0,15.7,30.07,NNW,337,0.0,0.0,83,0.00,,,0.01,Weather View 32 v70,2013-01-03 00:15:00,
2013-01-02 19:25:00,20.0,16.5,30.07,NNW,337,0.0,0.0,86,0.00,,,0.01,Weather View 32 v70,2013-01-03 00:25:00,
2013-01-02 19:30:00,20.0,17.0,30.07,NNW,337,0.0,0.0,88,0.00,,,0.01,Weather View 32 v70,2013-01-03 00:30:00,
2013-01-02 19:35:00,20.0,17.0,30.07,NNW,337,0.0,0.0,88,0.00,,,0.01,Weather View 32 v70,2013-01-03 00:35:00,
2013-01-02 19:45:00,20.0,17.3,30.07,NNW,337,0.0,0.0,89,0.00,,,0.01,Weather View 32 v70,2013-01-03 00:45:00,
2013-01-02 19:50:00,20.0,16.5,30.07,NNW,337,0.0,0.0,86,0.00,,,0.01,Weather View 32 v70,2013-01-03 00:50:00,
2013-01-02 19:55:00,20.0,16.8,30.06,NNW,337,0.0,0.0,87,0.00,,,0.01,Weather View 32 v70,2013-01-03 00:55:00,
2013-01-02 20:05:00,20.0,15.9,30.06,NNW,337,0.0,0.0,84,0.00,,,0.01,Weather View 32 v70,2013-01-03 01:05:00,
2013-01-02 20:10:00,19.0,16.6,30.06,NNW,337,0.0,0.0,90,0.00,,,0.01,Weather View 32 v70,2013-01-03 01:10:00,
2013-01-02 20:15:00,19.0,17.1,30.07,NNW,337,0.0,0.0,92,0.00,,,0.01,Weather View 32 v70,2013-01-03 01:15:00,
2013-01-02 20:20:00,19.0,17.8,30.06,NNW,337,0.0,0.0,95,0.00,,,0.01,Weather View 32 v70,2013-01-03 01:20:00,
2013-01-02 20:25:00,19.0,18.8,30.07,NNW,337,0.0,0.0,99,0.00,,,0.01,Weather View 32 v70,2013-01-03 01:25:00,
2013-01-02 20:35:00,18.0,18.0,30.06,NNW,337,0.0,0.0,100,0.00,,,0.01,Weather View 32 v70,2013-01-03 01:35:00,
2013-01-02 20:40:00,18.0,18.0,30.06,NNW,337,0.0,0.0,100,0.00,,,0.01,Weather View 32 v70,2013-01-03 01:40:00,
2013-01-02 20:45:00,18.0,18.0,30.06,NNW,337,0.0,0.0,100,0.00,,,0.01,Weather View 32 v70,2013-01-03 01:45:00,
2013-01-02 20:55:00,17.0,17.0,30.06,NNW,337,0.0,0.0,100,0.00,,,0.01,Weather View 32 v70,2013-01-03 01:55:00,
2013-01-02 21:00:00,17.0,17.0,30.06,NNW,337,0.0,0.0,100,0.00,,,0.01,Weather View 32 v70,2013-01-03 02:00:00,
2013-01-02 21:05:00,17.0,17.0,30.07,NNW,337,0.0,0.0,100,0.00,,,0.01,Weather View 32 v70,2013-01-03 02:05:00,
2013-01-02 21:10:00,16.0,16.0,30.07,NNW,337,0.0,0.0,100,0.00,,,0.01,Weather View 32 v70,2013-01-03 02:10:00,
2013-01-02 21:15:00,16.0,16.0,30.07,NNW,337,0.0,0.0,100,0.00,,,0.01,Weather View 32 v70,2013-01-03 02:15:00,
2013-01-02 21:20:00,16.0,16.0,30.07,NNW,337,0.0,0.0,100,0.00,,,0.01,Weather View 32 v70,2013-01-03 02:20:00,
2013-01-02 21:25:00,16.0,16.0,30.06,NNW,337,0.0,0.0,100,0.00,,,0.01,Weather View 32 v70,2013-01-03 02:25:00,
2013-01-02 21:30:00,17.0,17.0,30.06,NNW,337,0.0,0.0,100,0.00,,,0.01,Weather View 32 v70,2013-01-03 02:30:00,
2013-01-02 21:40:00,16.0,16.0,30.06,NNW,337,0.0,0.0,100,0.00,,,0.01,Weather View 32 v70,2013-01-03 02:40:00,
2013-01-02 21:45:00,16.0,16.0,30.06,NNW,337,0.0,0.0,100,0.00,,,0.01,Weather View 32 v70,2013-01-03 02:45:00,
2013-01-02 21:50:00,16.0,16.0,30.06,NNW,337,0.0,0.0,100,0.00,,,0.01,Weather View 32 v70,2013-01-03 02:50:00,
2013-01-02 21:55:00,16.0,16.0,30.06,NNW,337,0.0,0.0,100,0.00,,,0.01,Weather View 32 v70,2013-01-03 02:55:00,
2013-01-02 22:00:00,16.0,16.0,30.06,NNW,337,0.0,0.0,100,0.00,,,0.01,Weather View 32 v70,2013-01-03 03:00:00,
2013-01-02 22:10:00,15.0,15.0,30.06,NNW,337,0.0,0.0,100,0.00,,,0.01,Weather View 32 v70,2013-01-03 03:10:00,
2013-01-02 22:15:00,15.0,15.0,30.06,NNW,337,0.0,0.0,100,0.00,,,0.01,Weather View 32 v70,2013-01-03 03:15:00,
2013-01-02 22:25:00,15.0,15.0,30.06,NNW,337,0.0,0.0,100,0.00,,,0.01,Weather View 32 v70,2013-01-03 03:25:00,
2013-01-02 22:30:00,15.0,15.0,30.06,NNW,337,0.0,0.0,100,0.00,,,0.01,Weather View 32 v70,2013-01-03 03:30:00,
2013-01-02 22:35:00,15.0,15.0,30.06,NNW,337,0.0,0.0,100,0.00,,,0.01,Weather View 32 v70,2013-01-03 03:35:00,
2013-01-02 22:40:00,15.0,15.0,30.06,NNW,337,0.0,0.0,100,0.00,,,0.01,Weather View 32 v70,2013-01-03 03:40:00,
2013-01-02 22:50:00,15.0,15.0,30.06,NNW,337,0.0,0.0,100,0.00,,,0.01,Weather View 32 v70,2013-01-03 03:50:00,
2013-01-02 22:55:00,15.0,15.0,30.06,NNW,337,0.0,0.0,100,0.00,,,0.01,Weather View 32 v70,2013-01-03 03:55:00,
2013-01-02 23:00:00,15.0,15.0,30.06,NNW,337,0.0,0.0,100,0.00,,,0.01,Weather View 32 v70,2013-01-03 04:00:00,
2013-01-02 23:10:00,14.0,14.0,30.05,NNW,337,0.0,0.0,100,0.00,,,0.01,Weather View 32 v70,2013-01-03 04:10:00,
2013-01-02 23:15:00,14.0,14.0,30.06,NNW,337,0.0,0.0,100,0.00,,,0.01,Weather View 32 v70,2013-01-03 04:15:00,
2013-01-02 23:20:00,15.0,15.0,30.05,NNW,337,0.0,0.0,100,0.00,,,0.01,Weather View 32 v70,2013-01-03 04:20:00,
2013-01-02 23:25:00,14.0,14.0,30.05,NNW,337,0.0,0.0,100,0.00,,,0.01,Weather View 32 v70,2013-01-03 04:25:00,
2013-01-02 23:30:00,14.0,14.0,30.05,NNW,337,0.0,0.0,100,0.00,,,0.01,Weather View 32 v70,2013-01-03 04:30:00,
2013-01-02 23:35:00,14.0,14.0,30.06,NNW,337,0.0,0.0,100,0.00,,,0.01,Weather View 32 v70,2013-01-03 04:35:00,
2013-01-02 23:40:00,13.0,13.0,30.06,NNW,337,0.0,0.0,100,0.00,,,0.01,Weather View 32 v70,2013-01-03 04:40:00,
2013-01-02 23:45:00,13.0,13.0,30.06,NNW,337,0.0,0.0,100,0.00,,,0.01,Weather View 32 v70,2013-01-03 04:45:00,
2013-01-02 23:55:00,13.0,13.0,30.06,NNW,337,0.0,0.0,100,0.00,,,0.01,Weather View 32 v70,2013-01-03 04:55:00,